Location: Krasnoyarskiy Pitomnik
(51.1333°N, 71.6167°E)
Time: 18:04:19
(UTC+00:00)

ISS - Visible Passes

Search period start: 27 February 2024 00:00
Search period end: 08 March 2024 00:00
Orbit: 414 x 422 km, 51.6° (Epoch: 27 February)

Date Brightness Start Highest point End Pass type
(mag) Time Alt. Az. Time Alt. Az. Time Alt. Az.
27 Feb -3.8 00:28:18 38° W 00:29:29 80° N 00:32:53 10° E visible
27 Feb -3.1 23:42:16 55° ENE 23:42:16 55° ENE 23:45:01 10° E visible
28 Feb -3.7 01:15:12 11° W 01:18:27 80° SSW 01:21:51 10° ESE visible
28 Feb -0.8 22:56:13 17° E 22:56:13 17° E 22:57:07 10° E visible
29 Feb -3.8 00:29:08 32° W 00:30:34 88° NNE 00:33:57 10° E visible
29 Feb -3.4 23:43:03 64° ENE 23:43:03 64° ENE 23:46:01 10° E visible
01 Mar -3.3 01:16:02 10° W 01:19:20 49° SSW 01:22:37 10° SE visible
01 Mar -1.0 22:56:58 19° E 22:56:58 19° E 22:58:01 10° E visible
02 Mar -3.7 00:29:53 29° W 00:31:25 65° SSW 00:34:46 10° ESE visible
02 Mar -3.5 23:43:48 67° SE 23:43:48 67° SE 23:46:48 10° ESE visible
03 Mar -2.4 01:17:00 10° W 01:19:54 27° SSW 01:22:48 10° SSE visible
03 Mar -1.1 22:57:43 18° E 22:57:43 18° E 22:58:44 10° E visible
04 Mar -3.0 00:30:39 26° WSW 00:31:57 37° SSW 00:35:07 10° SE visible
04 Mar -3.0 23:44:37 42° SSE 23:44:37 42° SSE 23:47:13 10° SE visible
05 Mar -0.9 22:58:38 14° ESE 22:58:38 14° ESE 22:59:11 10° ESE visible
06 Mar -2.2 00:31:35 18° SW 00:32:11 19° SW 00:34:41 10° S visible
06 Mar -1.8 23:45:42 19° S 23:45:42 19° S 23:47:04 10° SSE visible
